Location: Pian di Sc�
(43.6333°N, 11.5500°E)
Time: 17:19:52
(UTC+00:00)

Cosmos 1726 - Pass Details

Date: 07 August 2020
Orbit: 482 x 499 km, 82.5° (Epoch: 20 September)

Event Time Altitude Azimuth Distance (km) Brightness Sun altitude
Exits shadow 02:04:21 19° 149° (SSE) 1,209 3.9 -19.2°
Maximum altitude 02:06:26 36° 92° (E) 792 3.4 -18.9°
Drops below altitude 10° 02:09:51 10° 25° (NNE) 1,688 5.9 -18.5°
Sets 02:12:03 0° 17° (NNE) 2,572 6.9 -18.3°
